Weather History for Stillwater, OK

Change the Weather History Date:

Friday, January 4, 2013

  Actual Average Record
Temperature  
Mean Temperature 32 °F -  
Max Temperature 48 °F 46 °F 61 °F (2003)
Min Temperature 16 °F 25 °F 9 °F (1999)
Degree Days  
Heating Degree Days 33    
Moisture  
Dew Point 21 °F    
Average Humidity 65    
Maximum Humidity 88    
Minimum Humidity 36    
Precipitation  
Precipitation 0.00 in - - ()
Sea Level Pressure  
Sea Level Pressure 30.40 in    
Wind  
Wind Speed 4 mph (SSW)    
Max Wind Speed 15 mph    
Max Gust Speed 24 mph    
Visibility 10 miles    
Events      
Averages and records for this station are not official NWS values.
T = Trace of Precipitation, MM = Missing Value Source: NWS Daily Summary

Daily Weather History Graph

Daily Weather History Graph

Search for Another Location

Airport:

Trip Planner

Search our weather history database for the weather conditions in past years. The results will help you decide how hot, cold, wet, or windy it might be!

Date:

Astronomy

Jan. 04, 2013 Rise Set
Actual Time 7:39 AM CST 5:27 PM CST
Civil Twilight 7:11 AM CST 5:55 PM CST
Nautical Twilight 6:39 AM CST 6:27 PM CST
Astronomical Twilight 6:08 AM CST 6:58 PM CST
Moon No Moon Rise 11:37 AM CST (1/4)
Length of Visible Light 10h 44m
Length of Day
9h 47m
Waning Gibbous, 55% of the Moon is Illuminated
Jan 4
Waning Gibbous
Jan 4
Last Quarter
Jan 11
New
Jan 18
First Quarter
Jan 26
Full

Hourly Weather History & Observations

Time (CST) Temp. Windchill Dew Point Humidity Pressure Visibility Wind Dir Wind Speed Gust Speed Precip Events Conditions
12:53 AM 21.0 °F - 18.0 °F 88% 30.47 in 10.0 mi Calm Calm - N/A   Clear
1:53 AM 21.0 °F - 18.0 °F 88% 30.46 in 10.0 mi Calm Calm - N/A   Clear
2:53 AM 17.1 °F - 12.9 °F 84% 30.46 in 10.0 mi Calm Calm - N/A   Clear
3:53 AM 16.0 °F - 12.9 °F 88% 30.46 in 10.0 mi Calm Calm - N/A   Clear
4:53 AM 16.0 °F - 12.9 °F 88% 30.46 in 10.0 mi Calm Calm - N/A   Clear
5:53 AM 18.0 °F - 14.0 °F 84% 30.46 in 10.0 mi Calm Calm - N/A   Clear
6:53 AM 17.1 °F 11.7 °F 14.0 °F 88% 30.47 in 10.0 mi South 3.5 mph - N/A   Clear
7:53 AM 18.0 °F 12.7 °F 14.0 °F 84% 30.47 in 10.0 mi South 3.5 mph - N/A   Clear
8:53 AM 26.1 °F 20.5 °F 23.0 °F 88% 30.46 in 10.0 mi South 4.6 mph - N/A   Clear
9:53 AM 34.0 °F 28.0 °F 27.0 °F 75% 30.48 in 10.0 mi South 6.9 mph - N/A   Clear
10:53 AM 42.1 °F 34.5 °F 25.0 °F 51% 30.46 in 10.0 mi SSW 15.0 mph - 0.00 in   Clear
11:53 AM 46.9 °F - 24.1 °F 41% 30.43 in 10.0 mi SW 12.7 mph 24.2 mph 0.00 in   Clear
12:53 PM 46.9 °F - 21.9 °F 37% 30.39 in 10.0 mi SW 13.8 mph - N/A   Overcast
1:53 PM 46.9 °F - 23.0 °F 39% 30.37 in 10.0 mi SW 13.8 mph 23.0 mph N/A   Overcast
2:53 PM 48.0 °F - 21.9 °F 36% 30.35 in 10.0 mi SW 15.0 mph - N/A   Mostly Cloudy
3:53 PM 46.9 °F - 23.0 °F 39% 30.35 in 10.0 mi SSW 11.5 mph - N/A   Overcast
4:53 PM 44.1 °F 39.0 °F 21.9 °F 42% 30.35 in 10.0 mi SSW 9.2 mph - N/A   Clear
5:53 PM 43.0 °F 38.8 °F 24.1 °F 47% 30.34 in 10.0 mi South 6.9 mph - N/A   Overcast
6:53 PM 41.0 °F 35.8 °F 25.0 °F 53% 30.35 in 10.0 mi South 8.1 mph - N/A   Overcast
7:53 PM 37.9 °F 33.5 °F 25.0 °F 60% 30.34 in 10.0 mi South 5.8 mph - N/A   Mostly Cloudy
8:53 PM 39.9 °F 35.1 °F 26.1 °F 58% 30.33 in 10.0 mi South 6.9 mph - N/A   Overcast
9:53 PM 37.9 °F 31.5 °F 27.0 °F 65% 30.32 in 10.0 mi South 9.2 mph - N/A   Mostly Cloudy
10:53 PM 39.0 °F 33.4 °F 27.0 °F 62% 30.31 in 10.0 mi South 8.1 mph - N/A   Overcast
11:53 PM 37.9 °F 35.5 °F 27.0 °F 65% 30.30 in 10.0 mi WSW 3.5 mph - N/A   Overcast